• In Spain
  • List of Countries
  • For 7 days
  • Water Temperature
  • Satellite Maps
  • Weather Map
  • Weather Widgets
  • user-avatar
    Login

    Hourly Weather Sobreda

    Today, 24 November, Friday

    Time Temperature Precipitation Wind Pressure Humidity
    00:00 +16°C° 0 mm 3 mps 756 mmHg 96%
    01:00 +16°C° 0 mm 3 mps 756 mmHg 96%
    02:00 +16°C° 0 mm 3 mps 756 mmHg 96%
    03:00 +15°C° 0.3 mm 4 mps 756 mmHg 96%
    04:00 +15°C° 0.3 mm 4 mps 756 mmHg 95%
    05:00 +15°C° 0 mm 4 mps 756 mmHg 96%
    06:00 +15°C° 0.3 mm 4 mps 756 mmHg 92%
    07:00 +16°C° 0.3 mm 5 mps 756 mmHg 89%
    08:00 +16°C° 0.3 mm 5 mps 756 mmHg 86%
    09:00 +19°C° 0.1 mm 5 mps 756 mmHg 76%
    10:00 +20°C° 0.1 mm 5 mps 756 mmHg 67%
    11:00 +22°C° 0.1 mm 6 mps 756 mmHg 58%
    12:00 +22°C° 0 mm 6 mps 756 mmHg 56%
    13:00 +22°C° 0 mm 6 mps 756 mmHg 53%
    14:00 +22°C° 0 mm 6 mps 756 mmHg 51%
    15:00 +21°C° 0 mm 5 mps 756 mmHg 58%
    16:00 +19°C° 0 mm 4 mps 756 mmHg 66%
    17:00 +18°C° 0 mm 3 mps 756 mmHg 73%
    18:00 +18°C° 0 mm 3 mps 756 mmHg 75%
    19:00 +17°C° 0 mm 3 mps 756 mmHg 76%
    20:00 +17°C° 0 mm 3 mps 757 mmHg 77%
    21:00 +16°C° 0 mm 2 mps 757 mmHg 77%
    22:00 +16°C° 0 mm 2 mps 757 mmHg 77%
    23:00 +15°C° 0 mm 2 mps 757 mmHg 77%

    Tomorrow, 25 November, Saturday

    Time Temperature Precipitation Wind Pressure Humidity
    00:00 +15°C° 0 mm 1 mps 757 mmHg 76%
    01:00 +15°C° 0 mm 1 mps 757 mmHg 75%
    02:00 +15°C° 0 mm 1 mps 757 mmHg 74%
    03:00 +15°C° 0 mm 1 mps 757 mmHg 73%
    04:00 +15°C° 0 mm 2 mps 757 mmHg 71%
    05:00 +15°C° 0 mm 2 mps 757 mmHg 70%
    06:00 +16°C° 0 mm 2 mps 757 mmHg 69%
    07:00 +16°C° 0 mm 2 mps 758 mmHg 67%
    08:00 +16°C° 0 mm 2 mps 758 mmHg 66%
    09:00 +17°C° 0 mm 2 mps 758 mmHg 65%
    10:00 +17°C° 0 mm 2 mps 758 mmHg 64%
    11:00 +18°C° 0 mm 2 mps 759 mmHg 63%
    12:00 +18°C° 0 mm 2 mps 759 mmHg 62%
    13:00 +19°C° 0 mm 2 mps 758 mmHg 61%
    14:00 +19°C° 0 mm 2 mps 758 mmHg 61%
    15:00 +18°C° 0 mm 2 mps 758 mmHg 64%
    16:00 +18°C° 0 mm 2 mps 759 mmHg 67%
    17:00 +17°C° 0 mm 3 mps 759 mmHg 70%
    18:00 +17°C° 0 mm 3 mps 759 mmHg 70%
    19:00 +16°C° 0 mm 3 mps 759 mmHg 71%
    20:00 +16°C° 0 mm 3 mps 760 mmHg 71%
    21:00 +16°C° 0 mm 3 mps 760 mmHg 72%
    22:00 +16°C° 0 mm 3 mps 760 mmHg 72%
    23:00 +16°C° 0 mm 3 mps 760 mmHg 73%

    Day after tomorrow, 26 November, Sunday

    Time Temperature Precipitation Wind Pressure Humidity
    00:00 +16°C° 0 mm 3 mps 760 mmHg 72%
    01:00 +16°C° 0 mm 3 mps 760 mmHg 72%
    02:00 +16°C° 0 mm 3 mps 760 mmHg 71%
    03:00 +15°C° 0 mm 4 mps 760 mmHg 71%
    04:00 +15°C° 0 mm 4 mps 760 mmHg 71%
    05:00 +14°C° 0 mm 4 mps 760 mmHg 71%
    06:00 +15°C° 0 mm 4 mps 761 mmHg 70%
    07:00 +15°C° 0 mm 4 mps 761 mmHg 69%
    08:00 +16°C° 0 mm 5 mps 762 mmHg 68%
    09:00 +16°C° 0 mm 5 mps 762 mmHg 66%
    10:00 +17°C° 0 mm 5 mps 762 mmHg 64%
    11:00 +19°C° 0 mm 5 mps 762 mmHg 62%
    12:00 +19°C° 0 mm 5 mps 762 mmHg 60%
    13:00 +20°C° 0 mm 5 mps 761 mmHg 58%
    14:00 +20°C° 0 mm 4 mps 761 mmHg 55%
    15:00 +19°C° 0 mm 4 mps 761 mmHg 60%
    16:00 +18°C° 0 mm 4 mps 761 mmHg 65%
    17:00 +17°C° 0 mm 4 mps 761 mmHg 70%
    18:00 +15°C° 0 mm 4 mps 761 mmHg 70%
    19:00 +15°C° 0 mm 4 mps 762 mmHg 71%
    20:00 +14°C° 0 mm 4 mps 762 mmHg 71%
    21:00 +14°C° 0 mm 4 mps 762 mmHg 70%
    22:00 +14°C° 0 mm 4 mps 762 mmHg 69%
    23:00 +14°C° 0 mm 4 mps 762 mmHg 68%

    27 November, Monday

    Time Temperature Precipitation Wind Pressure Humidity
    00:00 +14°C° 0.1 mm 4 mps 762 mmHg 68%
    01:00 +14°C° 0.1 mm 5 mps 761 mmHg 69%
    02:00 +14°C° 0.1 mm 5 mps 761 mmHg 70%
    03:00 +14°C° 0 mm 5 mps 761 mmHg 69%
    04:00 +14°C° 0 mm 5 mps 761 mmHg 68%
    05:00 +14°C° 0 mm 6 mps 761 mmHg 68%
    06:00 +14°C° 0 mm 6 mps 761 mmHg 68%
    07:00 +15°C° 0 mm 5 mps 761 mmHg 67%
    08:00 +15°C° 0 mm 5 mps 761 mmHg 67%
    09:00 +16°C° 0 mm 5 mps 761 mmHg 66%
    10:00 +17°C° 0 mm 5 mps 761 mmHg 66%
    11:00 +17°C° 0 mm 5 mps 761 mmHg 66%
    12:00 +17°C° 0 mm 5 mps 761 mmHg 65%
    13:00 +19°C° 0 mm 4 mps 760 mmHg 65%
    14:00 +19°C° 0 mm 4 mps 760 mmHg 65%
    15:00 +18°C° 0.2 mm 3 mps 760 mmHg 68%
    16:00 +17°C° 0.2 mm 3 mps 759 mmHg 71%
    17:00 +16°C° 0.2 mm 2 mps 759 mmHg 75%
    18:00 +16°C° 0.4 mm 3 mps 759 mmHg 77%
    19:00 +15°C° 0.4 mm 4 mps 760 mmHg 80%
    20:00 +15°C° 0.4 mm 4 mps 760 mmHg 82%
    21:00 +15°C° 0 mm 4 mps 759 mmHg 83%
    22:00 +14°C° 0 mm 4 mps 759 mmHg 83%
    23:00 +14°C° 0 mm 5 mps 758 mmHg 84%

    28 November, Tuesday

    Time Temperature Precipitation Wind Pressure Humidity
    00:00 +14°C° 0 mm 5 mps 758 mmHg 84%
    01:00 +14°C° 0 mm 4 mps 758 mmHg 84%
    02:00 +14°C° 0 mm 4 mps 757 mmHg 84%
    03:00 +14°C° 0.6 mm 5 mps 757 mmHg 86%
    04:00 +14°C° 0.6 mm 5 mps 756 mmHg 89%
    05:00 +14°C° 0.6 mm 5 mps 756 mmHg 91%
    06:00 +14°C° 0.5 mm 5 mps 756 mmHg 90%
    07:00 +14°C° 0.5 mm 6 mps 756 mmHg 90%
    08:00 +14°C° 0.5 mm 6 mps 756 mmHg 90%
    09:00 +15°C° 0.1 mm 6 mps 755 mmHg 86%
    10:00 +16°C° 0.1 mm 6 mps 755 mmHg 82%
    11:00 +17°C° 0.1 mm 6 mps 754 mmHg 78%
    12:00 +19°C° 0.3 mm 6 mps 753 mmHg 77%
    13:00 +19°C° 0.3 mm 5 mps 753 mmHg 77%
    14:00 +20°C° 0.3 mm 5 mps 752 mmHg 76%
    15:00 +19°C° 1.6 mm 4 mps 752 mmHg 80%
    16:00 +18°C° 1.6 mm 4 mps 751 mmHg 85%
    17:00 +17°C° 1.6 mm 4 mps 751 mmHg 89%
    18:00 +17°C° 0.7 mm 3 mps 751 mmHg 91%
    19:00 +17°C° 0.7 mm 3 mps 751 mmHg 93%
    20:00 +16°C° 0.7 mm 3 mps 751 mmHg 95%
    21:00 +16°C° 0.3 mm 3 mps 750 mmHg 95%
    22:00 +16°C° 0.3 mm 3 mps 750 mmHg 95%
    23:00 +16°C° 0.3 mm 3 mps 750 mmHg 96%

    29 November, Wednesday

    Time Temperature Precipitation Wind Pressure Humidity
    00:00 +16°C° 0.2 mm 3 mps 750 mmHg 96%
    01:00 +15°C° 0.2 mm 4 mps 749 mmHg 95%
    02:00 +14°C° 0.2 mm 4 mps 749 mmHg 95%
    03:00 +14°C° 0 mm 4 mps 749 mmHg 95%
    04:00 +14°C° 0 mm 5 mps 749 mmHg 94%
    05:00 +13°C° 0 mm 5 mps 749 mmHg 94%
    06:00 +13°C° 0 mm 5 mps 749 mmHg 91%
    07:00 +14°C° 0 mm 5 mps 750 mmHg 88%
    08:00 +14°C° 0 mm 5 mps 750 mmHg 86%
    09:00 +15°C° 0 mm 5 mps 750 mmHg 79%
    10:00 +16°C° 0 mm 5 mps 750 mmHg 73%
    11:00 +17°C° 0 mm 5 mps 751 mmHg 66%
    12:00 +17°C° 0 mm 5 mps 751 mmHg 62%
    13:00 +17°C° 0 mm 5 mps 751 mmHg 57%
    14:00 +19°C° 0 mm 5 mps 750 mmHg 52%
    15:00 +16°C° 0 mm 5 mps 751 mmHg 53%
    16:00 +15°C° 0 mm 5 mps 751 mmHg 55%
    17:00 +13°C° 0 mm 5 mps 752 mmHg 56%
    18:00 +13°C° 0 mm 6 mps 752 mmHg 56%
    19:00 +11°C° 0 mm 6 mps 753 mmHg 56%
    20:00 +10°C° 0 mm 6 mps 753 mmHg 55%
    21:00 +9°C° 0 mm 6 mps 754 mmHg 56%
    22:00 +9°C° 0 mm 6 mps 754 mmHg 57%
    23:00 +8°C° 0 mm 5 mps 754 mmHg 58%
    Show more